QPF
0.00 0.00 0.00 0.01 0.00 0.02 0.05 0.03 0.01 0.00 0.00 0.01 0.04 0.07 0.07 0.07 0.07 0.05 0.08 0.15 0.10 0.10 0.03 0.08 0.08 0.21 0.13 0.02 0.06 0.04 0.03 0.06 0.01 0.01 0.01 0.01 0.01 0.01 0.02 0.01 0.01 0.01 0.01
0.00 0.00 0.00 0.00 0.01 0.08 0.04 0.03 0.02 0.00 0.00 0.00 0.00 0.02 0.01 0.01 0.02 0.01 0.04 0.05 0.03 0.03 0.04 0.08 0.07 0.04 0.01 0.03 0.03 0.01 0.00 0.01 0.00 0.00 0.01 0.00 0.01 0.01 0.01 0.00 0.00 0.01 0.01
0.00 0.00 0.00 0.02 0.05 0.02 0.02 0.05 0.01 0.00 0.00 0.00 0.00 0.01 0.00 0.02 0.01 0.01 0.00 0.00 0.00 0.00 0.01 0.11 0.11 0.06 0.00 0.02 0.08 0.09 0.03 0.00 0.00 0.00 0.00 0.00 0.01 0.00 0.00 0.00 0.00 0.00 0.00
0.00 0.00 0.00 0.04 0.02 0.00 0.05 0.03 0.02 0.00 0.00 0.00 0.00 0.00 0.00 0.00 0.00 0.00 0.00 0.00 0.01 0.02 0.03 0.09 0.08 0.07 0.00 0.02 0.09 0.12 0.06 0.02 0.02 0.00 0.00 0.00 0.00 0.00 0.00 0.00 0.00 0.00 0.00
0.00 0.00 0.00 0.01 0.00 0.01 0.03 0.03 0.02 0.01 0.00 0.00 0.00 0.00 0.00 0.00 0.00 0.00 0.00 0.00 0.03 0.08 0.15 0.12 0.06 0.01 0.01 0.04 0.11 0.07 0.04 0.02 0.00 0.00 0.00 0.00 0.00 0.00 0.00 0.00 0.00 0.00 0.00
0.00 0.00 0.00 0.00 0.00 0.01 0.03 0.06 0.04 0.03 0.02 0.02 0.01 0.00 0.00 0.00 0.00 0.00 0.00 0.00 0.05 0.12 0.08 0.01 0.01 0.00 0.00 0.00 0.03 0.01 0.00 0.00 0.00 0.00 0.00 0.00 0.00 0.00 0.00 0.00 0.00 0.00 0.01
0.00 0.00 0.00 0.00 0.00 0.01 0.02 0.05 0.03 0.03 0.04 0.05 0.04 0.00 0.00 0.00 0.00 0.00 0.00 0.02 0.03 0.08 0.03 0.03 0.02 0.01 0.00 0.00 0.00 0.00 0.00 0.00 0.00 0.00 0.00 0.00 0.00 0.00 0.00 0.00 0.00 0.00 0.00
0.00 0.00 0.00 0.00 0.00 0.00 0.07 0.08 0.03 0.04 0.05 0.04 0.01 0.00 0.00 0.00 0.00 0.00 0.00 0.03 0.08 0.09 0.05 0.06 0.04 0.04 0.01 0.02 0.00 0.00 0.00 0.00 0.00 0.00 0.00 0.00 0.00 0.00 0.00 0.01 0.02 0.01 0.00
0.00 0.00 0.00 0.00 0.00 0.00 0.06 0.08 0.05 0.04 0.03 0.01 0.04 0.00 0.00 0.00 0.00 0.00 0.00 0.06 0.08 0.11 0.12 0.09 0.04 0.01 0.00 0.00 0.00 0.00 0.00 0.00 0.01 0.00 0.00 0.00 0.01 0.01 0.00 0.01 0.01 0.00 0.00
0.00 0.00 0.00 0.00 0.00 0.00 0.01 0.06 0.08 0.08 0.02 0.01 0.02 0.01 0.00 0.00 0.00 0.00 0.01 0.04 0.06 0.08 0.07 0.02 0.00 0.00 0.00 0.00 0.00 0.00 0.00 0.00 0.00 0.00 0.00 0.00 0.00 0.00 0.00 0.01 0.00 0.00 0.00
0.00 0.00 0.00 0.00 0.00 0.00 0.00 0.03 0.07 0.07 0.02 0.01 0.02 0.01 0.01 0.00 0.00 0.00 0.00 0.02 0.03 0.05 0.04 0.00 0.00 0.00 0.00 0.00 0.01 0.00 0.00 0.00 0.01 0.01 0.01 0.00 0.00 0.00 0.00 0.03 0.04 0.01 0.00
0.00 0.00 0.00 0.00 0.00 0.00 0.00 0.01 0.03 0.04 0.02 0.01 0.03 0.03 0.01 0.01 0.00 0.00 0.00 0.00 0.01 0.03 0.01 0.00 0.00 0.00 0.00 0.00 0.00 0.00 0.00 0.00 0.02 0.01 0.01 0.00 0.00 0.00 0.00 0.01 0.00 0.00 0.00
0.00 0.00 0.00 0.00 0.00 0.00 0.00 0.00 0.00 0.02 0.01 0.02 0.04 0.04 0.03 0.03 0.00 0.00 0.00 0.00 0.00 0.03 0.01 0.00 0.00 0.00 0.00 0.00 0.00 0.00 0.00 0.00 0.00 0.00 0.00 0.00 0.00 0.00 0.00 0.00 0.00 0.00 0.00
0.00 0.00 0.00 0.00 0.00 0.00 0.00 0.00 0.00 0.00 0.00 0.00 0.00 0.01 0.02 0.00 0.00 0.00 0.00 0.00 0.00 0.01 0.00 0.00 0.00 0.00 0.00 0.00 0.00 0.00 0.00 0.00 0.00 0.00 0.00 0.00 0.00 0.00 0.00 0.00 0.00 0.00 0.00
0.00 0.00 0.00 0.00 0.00 0.00 0.00 0.00 0.00 0.00 0.00 0.00 0.00 0.00 0.00 0.00 0.00 0.00 0.00 0.00 0.00 0.00 0.00 0.00 0.00 0.00 0.00 0.00 0.00 0.00 0.00 0.00 0.00 0.00 0.00 0.00 0.00 0.00 0.00 0.00 0.00 0.00 0.00
0.00 0.00 0.00 0.00 0.00 0.00 0.00 0.00 0.00 0.00 0.00 0.00 0.00 0.00 0.00 0.00 0.00 0.00 0.00 0.00 0.00 0.00 0.00 0.00 0.00 0.00 0.00 0.00 0.00 0.00 0.00 0.00 0.00 0.00 0.00 0.00 0.00 0.00 0.00 0.00 0.00 0.00 0.00
0.00 0.00 0.00 0.00 0.00 0.00 0.00 0.00 0.00 0.00 0.00 0.00 0.00 0.00 0.00 0.00 0.00 0.00 0.00 0.00 0.00 0.00 0.00 0.00 0.00 0.00 0.00 0.00 0.00 0.00 0.00 0.00 0.00 0.00 0.00 0.00 0.00 0.00 0.00 0.00 0.00 0.00 0.00
0.00 0.00 0.00 0.00 0.00 0.00 0.00 0.00 0.00 0.00 0.00 0.00 0.00 0.00 0.00 0.00 0.00 0.00 0.00 0.00 0.00 0.00 0.00 0.00 0.00 0.00 0.00 0.00 0.00 0.00 0.00 0.00 0.00 0.00 0.00 0.00 0.00 0.00 0.00 0.00 0.00 0.00 0.00
0.00 0.00 0.00 0.00 0.00 0.00 0.00 0.00 0.00 0.00 0.00 0.00 0.00 0.00 0.00 0.00 0.00 0.00 0.00 0.00 0.00 0.00 0.00 0.00 0.00 0.00 0.00 0.00 0.00 0.00 0.00 0.00 0.00 0.00 0.00 0.00 0.00 0.00 0.00 0.00 0.00 0.00 0.00
0.00 0.00 0.00 0.00 0.00 0.00 0.00 0.00 0.00 0.00 0.00 0.00 0.00 0.00 0.00 0.00 0.00 0.00 0.00 0.00 0.00 0.00 0.00 0.00 0.00 0.00 0.00 0.00 0.00 0.00 0.00 0.00 0.00 0.00 0.00 0.00 0.00 0.00 0.00 0.00 0.00 0.00 0.00
0.00 0.00 0.00 0.00 0.00 0.00 0.00 0.00 0.00 0.00 0.00 0.00 0.00 0.00 0.00 0.00 0.00 0.00 0.00 0.00 0.00 0.00 0.00 0.00 0.00 0.00 0.00 0.00 0.00 0.00 0.00 0.00 0.00 0.00 0.00 0.00 0.00 0.00 0.00 0.00 0.00 0.00 0.00
0.00 0.00 0.00 0.00 0.00 0.00 0.00 0.00 0.00 0.00 0.00 0.00 0.00 0.00 0.00 0.00 0.00 0.00 0.00 0.00 0.00 0.00 0.00 0.00 0.00 0.00 0.00 0.00 0.00 0.00 0.00 0.00 0.00 0.00 0.00 0.00 0.00 0.00 0.00 0.00 0.00 0.00 0.00
0.00 0.00 0.00 0.00 0.00 0.00 0.00 0.00 0.00 0.00 0.00 0.00 0.00 0.00 0.00 0.00 0.00 0.00 0.00 0.00 0.00 0.00 0.00 0.00 0.00 0.00 0.00 0.00 0.00 0.00 0.00 0.00 0.00 0.00 0.00 0.00 0.00 0.00 0.00 0.00 0.00 0.00 0.00
0.00 0.00 0.00 0.00 0.00 0.00 0.00 0.00 0.00 0.00 0.00 0.00 0.00 0.00 0.00 0.00 0.00 0.00 0.00 0.00 0.00 0.00 0.00 0.00 0.00 0.00 0.00 0.00 0.00 0.00 0.00 0.00 0.00 0.00 0.00 0.00 0.00 0.00 0.00 0.00 0.00 0.00 0.00
0.00 0.00 0.00 0.00 0.00 0.00 0.00 0.00 0.00 0.00 0.00 0.00 0.00 0.00 0.00 0.00 0.00 0.00 0.00 0.00 0.00 0.00 0.00 0.00 0.00 0.00 0.00 0.00 0.00 0.00 0.00 0.00 0.00 0.00 0.00 0.00 0.00 0.00 0.00 0.00 0.00 0.00 0.00
0.00 0.00 0.00 0.00 0.00 0.00 0.00 0.00 0.00 0.00 0.00 0.00 0.00 0.00 0.00 0.00 0.00 0.00 0.00 0.00 0.00 0.00 0.00 0.00 0.00 0.00 0.00 0.00 0.00 0.00 0.00 0.00 0.00 0.00 0.00 0.00 0.00 0.00 0.00 0.00 0.00 0.00 0.00
MSLP
1002.72 1003.07 1003.62 1003.89 1004.04 1004.58 1004.99 1005.26 1005.37 1005.58 1005.50 1005.81 1006.03 1006.34 1006.30 1006.49 1006.62 1006.81 1007.12 1007.49 1007.68 1008.00 1008.14 1008.09 1007.79 1007.82 1007.92 1008.12 1008.67 1009.10 1009.72 1010.05 1011.00 1012.37 1013.00 1013.61 1014.40 1014.94 1016.07 1016.74 1017.70 1018.50 1019.26
1002.52 1002.94 1003.52 1003.79 1003.84 1004.75 1005.01 1005.37 1005.47 1005.68 1005.37 1005.44 1005.74 1006.02 1006.10 1006.15 1006.79 1007.08 1006.93 1007.03 1007.50 1007.77 1007.90 1007.98 1007.91 1007.93 1007.92 1008.35 1008.71 1009.40 1010.14 1010.56 1011.14 1012.23 1013.21 1013.88 1014.55 1015.86 1016.65 1017.36 1018.09 1018.89 1019.85
1002.24 1002.79 1003.58 1003.82 1004.35 1004.86 1005.11 1005.22 1005.29 1005.13 1005.28 1005.33 1005.58 1006.00 1006.35 1006.59 1007.27 1007.32 1007.43 1007.53 1007.89 1007.76 1007.84 1007.88 1008.18 1008.26 1008.57 1009.01 1009.26 1009.83 1010.39 1010.97 1011.49 1012.35 1013.72 1014.73 1015.60 1016.45 1017.22 1018.05 1018.81 1019.70 1020.49
1002.06 1002.59 1003.53 1004.06 1004.34 1004.78 1005.22 1005.26 1005.22 1005.08 1005.37 1005.46 1005.58 1006.34 1006.75 1007.32 1007.58 1007.64 1007.70 1007.71 1007.65 1007.72 1008.13 1008.09 1008.53 1009.04 1009.16 1009.32 1009.68 1010.32 1011.00 1011.45 1012.20 1012.86 1014.02 1015.42 1016.13 1017.18 1017.85 1018.61 1019.82 1020.54 1021.04
1001.94 1002.30 1003.60 1004.04 1004.27 1004.55 1005.22 1005.24 1005.56 1005.44 1005.39 1005.46 1006.24 1006.86 1007.56 1007.69 1007.96 1008.08 1008.08 1007.91 1007.79 1008.12 1008.39 1008.66 1008.95 1009.46 1009.85 1009.98 1010.04 1010.77 1011.45 1012.09 1012.81 1013.63 1014.74 1015.78 1016.75 1017.58 1018.43 1019.49 1019.98 1020.53 1021.21
1001.83 1002.22 1003.44 1003.87 1004.32 1004.62 1005.07 1005.39 1005.47 1005.46 1005.92 1006.16 1006.47 1007.06 1007.73 1007.73 1008.67 1008.68 1008.52 1008.40 1008.13 1008.40 1008.57 1009.03 1009.58 1010.15 1010.41 1010.64 1010.87 1011.36 1011.87 1012.49 1013.27 1014.05 1015.18 1016.09 1017.07 1017.79 1018.71 1019.24 1019.60 1020.11 1020.73
1001.75 1002.20 1003.35 1003.55 1004.34 1004.84 1004.74 1005.29 1005.62 1006.08 1006.35 1006.82 1006.96 1007.35 1007.69 1008.69 1009.18 1009.11 1009.02 1008.68 1008.38 1008.69 1008.85 1009.35 1009.70 1010.53 1010.89 1011.41 1011.86 1012.28 1012.63 1013.20 1013.66 1014.29 1015.28 1016.34 1017.26 1017.90 1018.17 1018.71 1019.32 1019.43 1019.81
1001.52 1002.07 1002.88 1003.21 1004.22 1004.82 1005.04 1005.44 1005.82 1006.27 1006.70 1006.96 1007.14 1007.29 1008.01 1009.29 1009.65 1009.55 1009.40 1008.85 1009.12 1009.15 1009.37 1009.71 1010.10 1010.83 1011.37 1011.65 1012.36 1012.78 1013.41 1014.05 1014.58 1015.11 1015.82 1016.60 1017.30 1017.99 1018.04 1017.93 1018.42 1018.96 1019.86
1001.24 1001.87 1002.35 1003.38 1004.14 1004.56 1005.21 1005.82 1006.11 1006.84 1007.13 1007.45 1007.69 1007.89 1008.33 1009.44 1009.99 1009.98 1009.95 1009.25 1009.52 1009.56 1010.08 1010.43 1010.61 1011.36 1012.01 1012.44 1012.83 1013.47 1014.24 1014.76 1015.44 1015.93 1016.49 1017.10 1017.83 1018.16 1018.03 1018.08 1018.49 1018.86 1019.60
1001.01 1001.68 1002.16 1002.96 1003.99 1004.14 1005.23 1005.90 1006.25 1006.57 1007.09 1007.55 1007.90 1008.67 1009.14 1009.57 1010.18 1010.29 1010.14 1009.72 1009.92 1010.31 1010.81 1011.30 1011.81 1012.34 1012.73 1013.07 1013.47 1013.81 1014.48 1015.18 1015.85 1016.63 1017.36 1018.00 1018.20 1018.22 1018.52 1017.68 1017.94 1018.25 1018.69
1000.84 1001.57 1002.16 1002.89 1003.65 1004.50 1005.15 1005.92 1006.33 1006.58 1007.06 1007.60 1008.12 1008.83 1009.39 1009.99 1010.47 1010.53 1010.40 1009.95 1010.15 1010.59 1011.04 1011.58 1012.65 1012.89 1013.19 1013.42 1013.83 1014.20 1014.58 1015.15 1016.03 1016.58 1017.22 1017.79 1018.05 1018.01 1017.72 1017.77 1017.64 1018.06 1017.89
1000.68 1001.41 1002.16 1003.12 1003.62 1004.67 1005.24 1005.67 1006.28 1006.80 1007.14 1007.50 1008.20 1008.72 1009.27 1010.05 1010.55 1010.86 1010.86 1010.64 1010.68 1010.61 1010.95 1012.21 1013.16 1013.28 1013.54 1013.73 1013.88 1014.45 1014.86 1015.24 1015.82 1016.25 1016.70 1017.00 1017.22 1017.42 1017.36 1017.74 1018.26 1018.21 1017.80
1000.51 1001.28 1002.22 1003.09 1003.58 1004.50 1005.26 1005.51 1006.05 1006.77 1007.18 1007.42 1007.89 1008.26 1008.97 1009.70 1010.39 1011.05 1011.27 1011.32 1011.30 1011.05 1011.58 1012.57 1013.24 1013.53 1013.71 1014.02 1014.19 1014.47 1014.61 1014.85 1015.04 1015.30 1015.71 1016.03 1016.34 1016.70 1017.40 1018.16 1018.60 1018.76 1018.79
1000.37 1001.22 1002.14 1002.97 1003.44 1004.29 1005.07 1005.56 1005.28 1005.76 1005.63 1005.86 1007.08 1007.70 1008.46 1009.18 1009.85 1010.65 1011.21 1011.56 1011.82 1012.13 1012.44 1013.10 1013.41 1013.50 1013.56 1013.89 1014.41 1014.58 1014.05 1013.92 1014.15 1014.45 1014.81 1015.33 1016.23 1017.13 1017.65 1017.97 1018.50 1018.87 1019.24
1000.25 1001.06 1001.92 1002.62 1003.42 1004.09 1004.63 1005.47 1005.25 1005.19 1005.61 1005.83 1006.08 1006.80 1007.80 1008.43 1009.31 1010.06 1010.65 1010.85 1011.22 1011.57 1012.12 1012.79 1012.86 1012.96 1013.36 1013.79 1014.00 1013.80 1013.29 1013.44 1013.68 1014.08 1014.55 1015.31 1016.16 1016.67 1016.86 1017.44 1017.81 1018.31 1018.79
1000.01 1000.71 1001.41 1001.90 1003.00 1003.47 1004.12 1005.16 1005.99 1006.16 1006.22 1006.66 1006.83 1006.71 1007.22 1007.78 1009.09 1010.17 1010.67 1010.91 1011.19 1011.61 1011.71 1011.87 1011.93 1011.98 1012.13 1012.63 1012.86 1012.68 1012.74 1013.26 1013.18 1013.63 1014.26 1014.90 1015.26 1015.65 1016.13 1016.81 1017.19 1017.73 1018.15
999.47 1000.09 1000.71 1001.28 1002.09 1002.51 1003.24 1003.94 1005.19 1006.75 1006.73 1007.04 1007.70 1007.71 1007.82 1008.78 1009.29 1010.18 1010.87 1011.10 1011.36 1011.52 1011.20 1011.11 1010.99 1010.97 1011.13 1011.49 1011.81 1012.13 1012.29 1012.81 1012.95 1013.19 1013.78 1014.35 1014.63 1015.17 1015.81 1016.37 1016.72 1017.07 1017.30
999.30 999.76 1000.05 1000.72 1001.02 1001.76 1002.34 1002.93 1003.71 1004.95 1006.12 1006.97 1007.79 1008.31 1008.77 1009.09 1009.67 1010.22 1010.86 1011.28 1011.75 1011.69 1010.60 1009.82 1009.91 1010.12 1010.34 1010.58 1010.86 1011.12 1011.54 1012.03 1012.71 1012.97 1013.40 1013.95 1014.32 1014.70 1015.23 1015.58 1015.90 1016.21 1016.57
998.54 999.04 999.61 1000.07 1000.19 1000.92 1001.44 1002.10 1002.66 1003.34 1004.51 1005.55 1006.81 1008.64 1009.54 1010.12 1010.36 1010.52 1010.59 1010.20 1010.08 1010.17 1010.10 1009.41 1009.17 1009.37 1009.71 1009.91 1010.13 1010.43 1010.75 1011.13 1011.65 1012.35 1012.81 1013.16 1013.57 1013.89 1014.30 1014.90 1015.05 1015.42 1015.97
997.74 998.13 998.99 999.06 999.59 1000.20 1000.63 1001.17 1001.61 1002.07 1002.86 1003.83 1004.98 1006.72 1008.46 1009.76 1010.18 1010.38 1010.22 1009.61 1008.92 1008.80 1008.83 1008.79 1008.41 1008.48 1008.69 1009.03 1009.31 1009.67 1010.00 1010.51 1010.99 1011.41 1011.72 1012.10 1012.43 1012.89 1013.00 1013.49 1014.17 1014.43 1015.47
996.84 997.69 998.26 998.39 998.80 999.28 999.87 1000.18 1000.67 1001.13 1001.62 1002.29 1003.24 1004.48 1006.07 1007.76 1008.05 1008.34 1008.57 1008.62 1008.36 1007.79 1007.65 1007.73 1007.86 1007.97 1008.22 1008.41 1008.67 1008.93 1009.21 1009.47 1009.89 1010.28 1010.97 1011.60 1011.83 1011.96 1012.24 1012.56 1013.27 1014.05 1014.82
995.60 996.29 997.53 997.81 997.80 998.22 998.90 999.43 999.93 1000.28 1000.70 1001.25 1002.07 1003.15 1005.04 1005.88 1005.95 1006.16 1006.47 1006.71 1007.04 1007.24 1006.93 1006.74 1006.79 1006.89 1007.15 1007.55 1007.91 1008.21 1008.44 1008.80 1009.21 1009.78 1010.38 1010.72 1010.75 1011.09 1011.57 1012.05 1012.65 1013.29 1014.18
994.68 995.17 996.11 996.99 996.90 997.40 998.20 998.51 998.92 999.42 999.83 1000.29 1000.95 1001.93 1003.73 1003.85 1003.94 1004.19 1004.28 1004.68 1005.31 1005.79 1006.20 1006.40 1006.22 1006.16 1006.18 1006.31 1006.73 1007.22 1007.54 1007.76 1008.06 1008.64 1009.02 1009.44 1009.92 1010.17 1010.71 1011.21 1011.80 1012.41 1013.43
994.07 994.09 994.61 995.76 996.25 996.29 996.91 997.63 997.91 998.52 998.83 999.31 999.87 1000.34 1001.59 1002.13 1002.53 1002.67 1002.88 1003.25 1003.55 1003.94 1004.57 1005.03 1005.38 1005.49 1005.57 1005.75 1005.87 1006.15 1006.56 1006.96 1007.33 1007.60 1008.20 1008.66 1008.94 1009.46 1009.88 1010.53 1011.26 1012.06 1013.39
993.67 993.44 993.71 994.44 995.19 995.52 995.79 996.49 997.19 997.43 998.12 998.48 998.86 999.42 999.88 1000.60 1001.11 1001.44 1001.77 1001.99 1002.04 1002.53 1002.85 1003.28 1003.81 1004.18 1004.50 1004.70 1004.92 1005.16 1005.47 1006.27 1006.69 1006.89 1007.03 1007.58 1008.16 1008.77 1009.33 1010.13 1011.11 1012.06 1013.49
993.56 993.16 992.96 993.41 994.17 994.64 995.04 995.45 996.09 996.68 996.82 997.43 997.98 998.34 998.74 999.12 999.46 999.93 1000.70 1001.28 1001.53 1001.32 1001.44 1001.96 1002.42 1002.84 1003.22 1003.60 1003.88 1004.30 1004.97 1005.57 1006.19 1006.73 1006.82 1006.94 1007.32 1008.17 1008.93 1009.66 1010.78 1012.38 1014.40
Thickness
5698 5693 5684 5680 5676 5670 5663 5658 5656 5653 5653 5651 5648 5644 5644 5643 5642 5640 5636 5632 5630 5626 5626 5628 5632 5633 5637 5638 5637 5634 5633 5632 5626 5620 5620 5620 5618 5618 5614 5613 5610 5612 5613
5698 5692 5683 5679 5676 5667 5662 5657 5656 5652 5655 5655 5653 5649 5649 5649 5644 5640 5641 5639 5635 5632 5631 5631 5634 5637 5640 5639 5637 5634 5631 5632 5628 5621 5617 5617 5617 5611 5610 5611 5611 5610 5608
5699 5690 5680 5676 5670 5664 5660 5659 5658 5659 5657 5657 5655 5651 5648 5648 5642 5643 5641 5639 5636 5636 5636 5635 5634 5638 5637 5633 5635 5634 5632 5630 5629 5623 5616 5614 5612 5611 5610 5608 5607 5605 5603
5697 5689 5678 5673 5670 5665 5660 5660 5659 5660 5657 5656 5656 5650 5647 5643 5643 5643 5643 5642 5642 5642 5639 5639 5636 5632 5634 5635 5634 5633 5630 5630 5626 5624 5617 5612 5612 5608 5608 5606 5600 5599 5599
5695 5691 5677 5675 5672 5668 5661 5660 5656 5657 5657 5658 5651 5647 5641 5641 5641 5641 5643 5645 5645 5641 5639 5638 5637 5634 5632 5633 5636 5633 5630 5627 5624 5621 5615 5612 5609 5608 5606 5600 5601 5601 5599
5695 5691 5680 5676 5671 5668 5663 5659 5658 5658 5653 5651 5649 5645 5640 5642 5634 5637 5642 5644 5646 5643 5641 5639 5637 5632 5631 5631 5633 5632 5631 5628 5624 5621 5616 5613 5609 5607 5604 5604 5606 5605 5603
5696 5692 5680 5679 5671 5667 5668 5661 5657 5652 5650 5644 5644 5643 5641 5635 5632 5635 5638 5645 5648 5644 5643 5639 5639 5634 5633 5632 5628 5628 5627 5625 5627 5625 5620 5615 5612 5611 5613 5612 5610 5612 5611
5698 5694 5687 5683 5674 5668 5666 5661 5657 5652 5645 5643 5643 5644 5639 5631 5630 5634 5636 5645 5643 5644 5643 5641 5639 5636 5634 5633 5629 5627 5624 5623 5622 5621 5619 5617 5615 5613 5615 5619 5617 5616 5609
5701 5697 5694 5684 5676 5672 5665 5658 5657 5647 5644 5640 5641 5641 5638 5631 5628 5630 5633 5643 5642 5642 5640 5639 5641 5636 5629 5629 5627 5623 5620 5619 5617 5618 5617 5617 5614 5614 5617 5619 5616 5614 5609
5705 5701 5699 5692 5681 5678 5668 5660 5657 5654 5648 5644 5640 5633 5631 5631 5626 5629 5634 5641 5639 5637 5636 5634 5630 5629 5627 5627 5626 5624 5621 5619 5617 5615 5613 5612 5613 5615 5616 5621 5622 5619 5617
5710 5706 5701 5695 5687 5679 5673 5665 5660 5657 5652 5646 5641 5633 5628 5627 5627 5629 5634 5642 5640 5637 5636 5636 5629 5626 5628 5628 5627 5626 5625 5623 5617 5618 5617 5615 5615 5618 5622 5622 5625 5623 5625
5713 5707 5702 5694 5691 5681 5675 5671 5665 5659 5655 5651 5643 5637 5633 5629 5629 5628 5632 5638 5639 5641 5641 5634 5627 5625 5627 5628 5630 5625 5625 5627 5625 5624 5623 5623 5623 5624 5627 5624 5621 5622 5626
5714 5708 5701 5696 5693 5685 5677 5675 5671 5665 5659 5657 5651 5647 5640 5637 5634 5629 5631 5633 5635 5642 5641 5631 5626 5627 5629 5630 5630 5631 5631 5634 5633 5633 5631 5631 5632 5632 5626 5621 5618 5617 5617
5714 5708 5703 5697 5694 5689 5684 5680 5682 5677 5679 5677 5665 5660 5654 5650 5647 5643 5639 5639 5634 5634 5631 5632 5634 5635 5637 5637 5633 5634 5642 5646 5644 5642 5641 5640 5634 5627 5623 5622 5618 5615 5610
5716 5711 5705 5701 5695 5691 5690 5687 5688 5688 5685 5685 5683 5676 5666 5662 5659 5655 5651 5651 5650 5648 5645 5641 5642 5644 5642 5640 5639 5643 5650 5650 5647 5646 5642 5637 5631 5628 5627 5623 5619 5614 5608
5717 5713 5710 5707 5700 5698 5695 5691 5677 5680 5680 5677 5677 5683 5682 5677 5666 5658 5654 5653 5651 5649 5651 5649 5649 5651 5651 5649 5647 5650 5652 5649 5651 5648 5643 5638 5636 5634 5629 5623 5620 5612 5607
5721 5719 5716 5712 5707 5705 5702 5698 5691 5682 5679 5678 5673 5676 5679 5673 5667 5661 5655 5653 5652 5651 5657 5657 5658 5660 5660 5658 5657 5655 5654 5652 5653 5651 5646 5641 5639 5634 5626 5621 5617 5612 5609
5724 5718 5722 5717 5717 5712 5709 5707 5704 5695 5688 5685 5676 5675 5670 5669 5666 5662 5657 5655 5654 5653 5665 5670 5669 5668 5667 5665 5664 5663 5661 5659 5653 5651 5647 5642 5637 5633 5626 5623 5619 5614 5610
5729 5727 5725 5723 5724 5718 5717 5713 5710 5706 5698 5693 5688 5672 5664 5659 5658 5658 5658 5668 5668 5666 5666 5672 5675 5674 5671 5670 5669 5668 5667 5663 5659 5653 5648 5644 5639 5635 5630 5623 5622 5611 5606
5733 5731 5727 5729 5726 5722 5720 5716 5715 5713 5708 5704 5698 5688 5675 5666 5665 5664 5664 5670 5676 5677 5676 5676 5681 5682 5681 5679 5677 5674 5671 5666 5661 5657 5654 5650 5646 5640 5638 5633 5624 5622 5610
5737 5732 5728 5731 5729 5727 5724 5722 5719 5717 5715 5713 5709 5706 5690 5681 5679 5676 5673 5672 5676 5682 5684 5684 5684 5684 5682 5681 5679 5676 5673 5671 5668 5664 5656 5649 5646 5643 5640 5636 5627 5618 5610
5744 5739 5730 5729 5733 5731 5727 5726 5723 5721 5719 5717 5715 5712 5692 5694 5692 5690 5687 5685 5684 5684 5689 5691 5691 5691 5689 5684 5681 5678 5675 5670 5667 5662 5654 5651 5651 5646 5640 5633 5624 5618 5609
5745 5743 5737 5731 5735 5729 5727 5728 5726 5723 5722 5720 5718 5714 5701 5703 5703 5701 5700 5697 5694 5692 5690 5689 5690 5691 5692 5692 5688 5682 5676 5673 5671 5666 5662 5656 5650 5647 5640 5632 5626 5618 5609
5745 5746 5742 5735 5733 5735 5732 5728 5728 5721 5724 5722 5721 5719 5712 5709 5706 5706 5706 5705 5703 5701 5697 5694 5692 5691 5690 5688 5687 5684 5680 5675 5670 5668 5662 5655 5652 5645 5640 5632 5623 5615 5601
5742 5744 5744 5739 5734 5735 5735 5731 5727 5727 5723 5723 5721 5719 5717 5715 5711 5709 5709 5708 5710 5707 5705 5702 5699 5696 5693 5691 5689 5686 5683 5677 5669 5665 5663 5659 5651 5643 5636 5627 5614 5606 5590
5736 5740 5744 5742 5737 5734 5733 5731 5729 5727 5727 5726 5723 5722 5720 5718 5717 5714 5709 5706 5705 5708 5709 5706 5704 5701 5696 5692 5690 5686 5680 5675 5667 5661 5657 5655 5650 5638 5629 5620 5607 5593 5572